Theta_e
320 329 335 335 345 344 354 352 343 345 347 351 351 354 353 342 349 351 352 349 346 339 332 325 328 344 347 347 336 337 342 343 344 344 343 343 344 345 345 346 344 343 342 342 340 339 338 334 334
323 326 333 335 342 349 357 350 346 343 348 348 351 353 352 349 341 352 352 350 344 342 335 331 329 334 338 337 335 339 344 344 345 345 345 344 344 345 345 344 342 341 340 338 337 335 333 333 334
325 330 330 330 332 345 346 348 345 348 347 348 346 348 351 345 344 351 352 350 350 346 339 337 330 333 338 336 337 339 341 344 344 344 346 344 344 345 342 340 339 338 337 335 334 332 331 333 334
325 328 328 330 334 341 340 346 349 348 350 346 346 343 344 341 350 352 351 352 351 348 344 340 337 334 333 334 336 341 341 343 343 344 345 344 341 340 340 339 337 336 334 334 332 331 332 333 333
325 324 328 329 330 340 348 354 349 351 353 353 343 342 340 338 349 350 352 352 351 348 346 342 332 327 327 331 336 341 342 343 344 345 344 340 337 337 338 337 335 334 332 331 331 331 332 333 332
324 324 326 327 334 347 348 352 353 354 355 353 347 342 340 343 345 349 351 351 348 345 347 345 336 323 326 327 332 339 342 342 345 344 342 338 336 335 335 335 333 331 332 331 330 331 332 331 331
323 323 325 326 328 347 348 345 351 351 349 356 351 345 341 340 343 347 351 350 349 348 345 344 339 324 325 328 327 334 338 339 338 338 337 335 334 334 333 332 331 330 329 329 330 330 329 328 328
319 322 324 325 330 349 347 345 344 346 348 343 345 350 347 341 344 350 350 350 349 347 347 341 331 324 320 321 325 326 330 330 329 329 330 331 331 330 330 330 329 332 335 331 328 328 327 326 325
318 318 322 324 337 351 349 350 348 345 342 340 342 347 343 340 340 345 348 349 349 349 350 347 344 339 326 324 321 322 324 325 327 327 327 327 327 330 338 340 340 342 338 334 329 327 325 327 327
316 317 322 329 351 355 352 354 350 355 349 345 342 345 341 338 338 338 340 347 345 344 347 348 347 347 343 338 338 323 324 323 324 325 332 340 333 340 340 344 343 341 340 338 337 336 336 335 340
315 317 322 336 349 353 353 353 349 352 351 347 345 340 337 337 337 337 335 335 335 333 336 342 342 344 345 346 341 339 341 340 341 340 340 343 344 347 344 344 343 342 341 340 340 338 340 340 342
316 317 323 344 345 348 352 348 350 348 348 340 337 334 332 330 330 331 330 329 329 330 329 333 342 343 344 345 347 343 340 342 341 342 342 343 343 344 342 342 343 341 341 341 340 338 339 341 345
317 317 334 342 342 341 340 340 339 337 334 332 330 330 329 327 326 325 325 326 326 325 326 326 334 340 342 344 345 342 341 340 340 342 344 345 344 344 344 341 341 340 340 339 338 336 335 336 342
318 318 333 334 336 337 337 336 334 332 328 327 326 324 324 324 324 323 322 322 322 322 322 323 324 330 336 344 344 344 344 342 342 338 339 341 343 342 340 340 340 340 339 337 336 335 334 334 333
318 321 333 335 335 334 333 335 333 328 326 326 324 322 321 321 321 321 320 320 319 319 319 320 321 325 330 337 336 340 344 344 344 343 342 343 342 343 343 340 338 341 341 340 340 337 336 336 334
316 318 326 332 332 333 332 337 331 327 326 325 324 322 320 319 318 319 318 318 317 317 316 316 317 320 322 326 329 333 334 335 336 337 337 337 339 342 345 346 344 344 344 345 345 345 346 344 340
316 314 317 330 329 331 330 334 331 327 326 324 322 320 319 317 317 316 316 316 316 316 316 315 314 316 317 320 324 326 327 327 327 325 324 326 328 332 334 334 335 341 341 342 342 344 343 342 348
316 315 315 321 327 328 329 330 330 327 325 324 321 319 318 316 315 315 315 315 315 315 315 314 313 314 314 317 320 321 319 319 318 319 316 318 318 319 323 323 322 325 329 329 331 334 338 336 338
319 318 317 317 326 328 328 330 329 325 323 322 320 318 316 315 315 314 314 314 315 315 314 314 312 313 315 314 316 316 318 314 315 314 314 315 313 314 317 316 316 316 317 317 318 319 324 329 330
320 318 327 326 325 326 328 328 325 324 322 320 320 318 315 313 313 314 314 313 314 314 313 313 313 312 313 313 313 314 314 313 313 312 313 311 311 314 314 311 310 311 311 314 315 316 316 321 321
318 318 326 327 327 327 327 326 325 323 322 320 317 316 314 313 312 312 313 313 313 313 312 311 311 311 311 311 311 312 311 312 311 311 311 310 311 311 309 308 308 308 310 309 310 310 313 315 316
317 319 321 328 326 326 324 326 324 323 320 319 315 313 312 312 312 312 312 312 312 311 311 310 311 311 310 311 311 311 310 311 309 309 308 309 308 309 307 307 306 307 307 307 307 309 310 311 314
319 320 319 323 326 325 326 323 323 322 321 318 314 313 311 310 309 309 310 310 311 309 310 309 310 309 310 309 309 309 310 308 308 307 308 307 307 306 304 304 303 303 303 303 304 304 305 306 308
322 320 318 319 321 328 325 324 324 324 323 319 316 312 311 309 308 310 310 310 310 309 310 309 309 309 309 309 309 309 308 309 307 306 305 305 305 305 303 302 301 302 302 302 301 302 303 303 304
320 319 324 324 320 322 325 325 323 323 322 319 314 312 310 308 308 308 308 309 308 309 309 308 308 308 307 308 308 308 308 308 307 306 305 304 303 303 302 301 300 301 300 300 300 300 300 301 300
320 321 322 327 328 323 324 328 324 322 320 315 313 311 310 307 306 306 308 308 308 308 308 308 308 307 307 307 308 306 306 306 307 306 305 304 303 303 302 300 300 300 300 299 299 299 298 298 298
321 323 323 324 323 325 327 323 320 318 315 314 312 311 309 309 307 307 308 308 308 308 307 307 307 307 307 307 307 306 305 305 306 305 303 304 304 303 302 301 300 299 299 299 299 298 298 298 297
323 323 322 320 329 329 330 329 322 316 314 313 312 311 310 308 308 307 308 307 307 307 307 306 306 306 305 306 306 305 306 304 306 304 304 302 302 301 303 302 301 300 299 299 299 298 298 297 297
327 325 327 322 320 324 330 336 319 316 314 313 313 311 310 309 308 307 307 307 306 307 306 305 305 305 305 305 306 305 305 304 304 303 302 303 302 301 301 302 299 300 299 299 298 298 296 295 295
329 329 330 332 331 328 333 328 324 316 314 313 312 311 309 308 307 307 308 307 306 306 305 305 305 305 304 305 305 305 304 304 303 302 301 302 300 300 300 302 300 299 298 298 298 297 296 294 295
Wind_Speed
13 7 6 3 2 4 15 8 4 4 19 28 21 15 14 12 4 11 23 33 31 28 22 20 19 19 18 17 17 18 19 18 20 18 17 17 17 16 14 13 13 13 12 11 10 10 10 9 9
18 11 7 3 2 4 6 11 10 5 16 22 21 20 19 16 12 22 19 28 30 27 22 20 19 18 18 17 17 17 17 17 18 16 15 15 14 13 11 11 10 10 9 8 7 7 7 6 7
21 6 2 4 3 10 8 18 8 13 13 14 6 13 9 9 10 9 34 30 26 22 20 19 18 18 17 18 17 17 16 16 16 14 13 13 11 10 10 9 8 7 6 5 5 5 5 5 6
10 2 4 4 8 23 8 13 16 16 18 19 4 8 12 13 12 25 36 34 26 21 19 17 18 17 17 17 17 16 15 14 14 13 11 10 10 8 7 6 5 4 3 3 3 4 5 5 6
12 2 2 6 17 4 22 26 21 19 11 26 10 12 12 17 37 37 38 27 24 21 18 16 16 16 16 16 16 15 15 14 13 12 9 9 8 6 4 3 2 1 1 2 3 4 5 6 6
3 1 4 7 15 8 21 27 30 28 30 18 16 11 7 21 27 36 36 30 22 22 17 15 12 15 16 15 15 14 13 12 11 9 7 6 6 5 3 2 1 1 3 4 4 5 6 7 8
5 2 8 12 16 5 12 17 25 26 30 11 6 8 5 9 23 34 37 27 22 17 16 13 12 13 14 13 13 12 12 11 9 8 6 4 4 3 3 2 3 4 6 8 8 8 9 9 10
3 0 11 11 7 5 5 8 23 14 9 13 9 8 3 7 33 39 31 27 19 15 15 15 13 13 13 12 10 10 9 8 7 6 5 4 4 4 4 5 5 6 8 9 10 11 12 11 11
6 3 7 14 5 7 9 28 18 12 16 7 3 1 11 21 22 28 29 26 22 19 17 14 15 16 14 12 8 8 8 7 7 6 4 3 4 6 8 7 9 10 9 11 12 13 14 13 13
3 2 8 7 21 21 24 26 24 16 6 4 4 14 19 21 17 18 15 20 15 12 14 11 8 15 11 12 8 8 7 7 6 6 5 3 4 7 12 8 14 15 12 13 12 11 13 14 13
8 8 5 7 24 28 24 22 17 22 12 10 10 16 20 28 26 27 28 25 25 24 27 23 21 20 14 12 8 8 8 8 7 5 5 2 7 12 10 13 15 19 18 17 15 13 15 16 13
7 9 3 12 21 25 22 11 14 14 9 16 15 17 20 18 21 23 24 25 26 28 24 22 18 15 13 13 13 6 11 10 10 9 8 8 11 11 8 11 14 12 12 15 18 18 21 19 13
7 12 9 18 21 21 21 15 16 14 15 15 17 18 16 16 20 23 23 25 22 27 22 21 15 15 12 12 13 12 11 8 2 3 12 9 6 6 10 11 11 12 15 18 19 20 17 14 12
9 8 14 13 18 21 25 17 7 12 13 14 15 14 14 16 17 19 22 22 24 20 19 17 16 12 11 12 14 17 10 8 7 3 4 3 5 9 13 14 13 14 14 16 19 20 21 21 20
7 7 15 15 14 15 18 10 12 12 12 14 14 11 12 15 18 18 19 21 19 20 18 15 15 10 12 10 14 18 17 15 14 15 12 6 3 7 7 10 13 15 17 19 20 20 20 21 22
8 5 7 11 13 13 5 9 14 14 14 12 13 11 9 9 15 16 15 16 16 17 18 17 15 14 12 10 16 15 16 15 15 15 14 13 12 11 11 10 12 16 14 15 16 17 20 23 23
6 5 6 7 13 8 5 11 11 13 13 12 12 12 10 8 12 14 15 14 15 16 16 17 17 17 15 13 13 15 17 17 18 19 21 22 18 17 16 17 17 15 17 17 20 20 22 25 26
8 6 7 9 13 10 11 9 14 12 12 11 11 10 10 9 7 13 14 14 14 15 16 17 19 18 19 14 13 16 20 21 24 21 25 24 24 23 19 19 21 21 20 22 23 23 24 25 26
11 7 16 11 14 12 11 14 13 9 9 9 9 11 9 9 13 14 14 14 15 16 18 18 21 19 20 20 17 21 22 23 24 22 23 22 23 25 25 23 23 26 25 25 26 26 26 24 27
16 11 3 6 19 9 15 10 8 8 7 9 11 11 12 8 7 12 14 14 16 16 17 19 19 21 21 18 19 19 17 19 21 21 23 25 24 24 24 25 27 26 27 26 27 26 25 14 23
11 11 6 9 5 17 16 8 12 9 7 9 10 11 12 11 9 8 12 15 16 17 16 18 18 20 20 20 19 17 18 22 24 25 23 23 23 22 24 26 25 24 23 25 24 27 24 19 17
8 10 6 16 6 6 8 5 12 13 9 9 10 9 10 10 9 11 12 15 17 16 15 16 18 19 22 22 22 23 22 21 21 20 19 22 23 22 25 25 25 25 23 24 24 24 24 24 21
7 6 6 7 13 7 8 2 7 15 11 12 11 10 9 9 10 8 12 15 16 14 14 16 16 18 19 21 24 23 23 21 20 21 22 21 21 23 26 26 25 23 24 24 23 24 24 22 22
6 7 9 7 8 9 11 10 6 19 24 14 13 14 12 9 9 14 14 15 16 15 14 13 14 16 16 18 21 22 22 20 22 22 23 23 22 24 28 28 27 26 26 25 26 24 22 22 21
5 3 3 3 6 5 13 9 4 15 22 19 19 15 13 10 9 8 14 17 14 13 12 11 12 13 14 14 17 18 18 18 19 21 21 22 24 24 28 28 28 27 27 27 27 25 24 22 23
8 9 6 7 4 8 6 2 9 3 19 21 18 15 11 9 8 8 14 17 15 12 11 8 10 12 12 12 14 16 16 16 16 18 17 18 18 19 20 24 24 24 25 26 27 25 25 25 23
10 4 7 8 9 7 5 5 10 17 22 20 17 14 12 11 9 8 11 13 12 13 10 7 9 12 12 13 13 16 13 14 13 15 16 18 17 18 16 18 22 21 20 25 20 21 22 25 28
6 1 3 3 4 9 5 5 9 8 15 16 14 12 12 9 9 9 10 9 7 14 13 9 9 14 13 11 12 14 13 16 13 15 16 18 17 19 19 14 20 21 21 24 19 19 22 26 27
6 4 5 2 3 5 3 3 13 21 18 17 14 13 12 12 10 9 15 11 11 13 14 9 10 14 12 10 11 13 10 14 13 15 16 16 18 20 18 15 23 18 24 21 21 18 27 28 27
6 12 5 3 7 3 2 3 6 15 16 16 15 15 9 11 10 14 15 16 13 10 11 8 11 12 12 10 10 12 11 10 12 13 16 16 18 18 21 19 20 20 25 22 20 27 31 31 31
Wind_Direction
342 334 304 302 25 88 325 277 255 347 70 76 91 117 76 27 96 134 128 127 129 127 126 123 122 117 115 111 107 106 104 103 100 99 100 101 102 100 99 97 95 91 87 85 80 73 66 61 61
325 314 205 285 201 123 197 266 270 25 104 84 84 92 72 70 71 120 111 127 125 124 127 123 121 118 115 111 110 108 103 104 104 105 103 104 107 107 106 97 91 89 87 82 76 72 65 58 56
322 275 91 181 248 246 184 195 121 55 41 72 83 50 77 119 116 99 130 123 121 119 123 122 122 119 115 115 113 113 113 111 109 112 112 116 118 118 113 107 100 89 82 68 57 47 39 33 38
304 6 283 180 210 261 265 129 78 39 29 24 53 48 61 93 102 132 130 128 118 124 121 124 121 121 123 125 125 123 122 122 121 121 121 129 130 128 124 118 109 97 74 55 35 18 1 355 3
291 262 253 290 267 129 72 86 81 80 81 15 18 91 82 102 125 126 123 124 123 125 122 120 129 132 133 135 133 133 134 135 134 136 143 142 142 144 145 143 121 81 18 3 3 348 334 336 336
309 49 333 288 292 84 88 94 91 82 75 10 60 88 96 110 117 126 126 126 123 130 126 123 132 138 138 139 139 141 142 141 140 146 156 159 158 162 170 195 256 317 307 314 323 320 314 316 316
237 286 264 286 292 90 123 98 102 105 112 119 291 124 154 151 136 113 116 119 124 131 134 137 136 146 141 141 145 147 150 150 153 159 174 179 193 193 226 256 275 304 309 310 310 307 304 308 313
270 299 286 289 281 75 37 83 107 91 110 158 179 140 156 116 116 118 125 125 132 140 140 134 141 144 143 142 142 151 157 159 165 171 181 200 226 225 238 259 269 282 301 302 302 300 298 305 304
296 305 292 287 37 70 68 80 57 110 129 190 190 141 141 134 136 132 128 132 148 153 158 148 148 140 138 133 135 158 165 175 180 184 193 218 238 245 264 278 276 284 300 302 295 295 296 298 295
166 242 258 283 97 97 82 84 95 79 123 118 219 189 166 132 115 72 92 147 128 96 155 150 169 178 155 148 113 152 154 178 194 201 195 265 244 265 276 255 293 297 294 294 298 302 298 294 303
253 239 299 28 97 101 97 107 139 145 81 54 82 72 58 62 55 55 51 48 57 58 61 57 77 92 107 191 161 156 179 172 167 186 211 256 284 298 294 269 290 291 284 281 282 297 288 293 293
253 261 194 86 93 102 107 99 87 85 116 98 77 75 65 57 51 52 50 42 38 47 51 49 55 73 69 65 65 246 234 221 218 218 211 232 259 275 284 299 300 322 311 302 297 294 290 297 288
248 250 93 110 108 110 114 110 99 86 84 76 74 68 68 64 59 51 50 47 46 40 42 40 37 45 47 51 45 44 50 47 155 207 226 237 241 269 295 313 325 323 318 313 310 309 315 326 317
240 222 120 91 102 108 111 126 103 117 107 89 75 64 66 66 63 56 50 45 45 39 35 37 29 35 38 50 48 32 26 30 9 12 42 99 238 264 276 282 291 295 303 310 316 315 312 310 311
262 119 113 128 141 127 115 82 111 120 107 103 89 73 62 62 62 62 56 53 49 44 37 32 27 36 44 48 46 42 43 54 62 66 57 53 27 343 313 295 304 308 306 315 313 308 306 304 301
297 139 141 172 137 165 129 142 142 138 131 124 116 106 81 63 65 76 68 62 51 51 43 35 41 55 55 52 60 59 51 53 47 41 39 35 32 43 44 39 16 2 347 338 334 337 329 316 303
271 214 206 165 158 155 149 144 154 151 140 138 133 129 127 108 82 79 81 70 64 58 51 43 47 55 50 55 63 59 47 43 36 33 29 26 26 28 26 16 3 354 350 345 341 332 338 337 336
243 195 269 174 191 163 150 144 151 155 145 147 138 128 120 111 109 97 91 82 70 63 61 50 49 56 53 59 70 65 52 50 43 35 28 30 23 18 19 15 8 4 358 350 342 336 330 346 335
253 216 222 242 179 153 154 142 161 158 144 142 130 123 116 118 118 107 97 89 80 68 59 55 47 52 52 46 55 53 52 49 49 37 44 36 24 27 22 22 17 12 10 4 358 348 343 345 344
253 254 110 352 148 96 132 146 149 161 168 152 148 133 129 128 118 114 110 98 85 74 63 58 53 51 56 52 53 57 61 53 50 39 46 35 35 34 38 25 20 13 9 7 5 8 2 353 1
246 236 177 162 126 122 131 147 170 187 164 148 142 141 138 132 122 114 109 107 92 76 66 61 61 53 57 59 59 64 57 49 37 37 36 39 40 36 26 19 15 9 12 9 2 360 3 350 351
249 256 209 147 125 175 163 200 190 178 156 141 130 121 118 118 118 115 114 106 102 89 74 69 65 63 61 62 63 62 54 53 42 38 38 38 36 31 22 20 15 17 12 7 4 359 359 357 345
223 287 281 148 171 156 204 127 210 163 172 170 148 139 130 123 122 118 120 119 118 98 90 74 71 66 66 60 61 62 61 53 54 42 43 39 36 24 19 18 18 18 14 10 5 358 355 352 343
212 262 269 243 175 215 189 187 183 179 191 160 140 125 128 124 126 141 127 111 118 109 97 83 73 69 64 61 56 57 52 53 46 41 39 35 29 23 18 18 20 21 16 12 8 3 2 357 348
178 211 270 313 249 214 198 205 136 220 177 152 136 134 129 130 138 144 129 113 98 91 89 80 77 72 62 62 61 60 52 51 44 42 33 29 24 20 10 12 17 15 10 10 5 8 2 359 352
230 174 168 238 238 257 223 309 334 109 126 123 122 124 132 119 110 87 96 112 110 98 89 83 97 83 74 63 77 63 56 50 44 39 33 29 24 16 13 11 11 7 8 1 2 4 2 357 352
234 238 211 225 250 265 135 90 28 101 117 122 128 120 107 106 109 103 88 107 120 119 101 72 103 93 80 65 85 62 57 44 45 40 34 22 12 8 6 10 17 10 1 4 358 357 354 350 341
140 203 1 333 203 242 87 138 149 130 116 120 123 114 118 117 116 120 109 100 96 125 104 74 85 90 70 59 86 64 66 42 44 40 31 23 17 11 360 4 11 9 1 1 356 353 347 336 332
3 5 8 262 170 193 227 211 176 154 147 144 139 135 139 144 140 137 137 109 80 82 93 73 66 77 67 53 77 60 52 47 46 34 22 17 15 7 5 6 1 2 4 358 351 353 346 338 333
10 17 69 94 317 293 149 264 192 164 145 142 138 139 146 135 139 127 122 110 93 75 78 63 80 64 59 40 69 55 44 42 46 28 21 18 9 7 6 352 8 4 360 354 348 345 344 339 333